Dewpoint
58 49 44 41 35 30 23 23 23 34 36 35 34 33 33 35 34 40 53 53 55 65 69 70 70 69 68 67 66 64 62 60 60 58 56 56 57 57 57 56 57 57 57 57 59 61 60 61 60
58 50 42 39 31 19 21 23 25 31 34 33 34 34 35 34 43 49 53 53 54 60 68 69 70 69 68 67 67 65 63 60 57 57 56 56 58 58 57 57 57 57 58 58 58 59 58 60 60
56 45 38 35 33 29 17 27 33 31 31 34 34 34 32 37 44 49 55 54 54 57 63 68 70 70 69 68 66 64 63 59 57 57 56 60 58 56 57 58 57 57 58 57 57 57 58 57 59
46 41 38 30 28 29 25 21 32 29 31 35 34 34 40 47 48 51 54 54 53 55 69 70 70 70 69 67 66 65 63 61 58 57 58 60 62 58 57 58 58 57 57 58 57 56 57 58 59
45 40 33 31 29 28 26 19 18 25 30 34 34 34 40 46 49 52 53 53 53 58 68 70 70 70 69 68 66 65 63 61 59 58 58 60 63 58 57 55 58 57 58 58 58 58 58 58 56
41 39 32 30 29 27 29 30 20 22 27 32 33 33 42 49 51 53 54 53 54 56 65 69 70 70 69 68 66 65 63 60 59 58 57 56 59 61 59 56 58 59 60 58 59 60 60 60 59
41 37 34 31 29 28 30 26 22 23 30 30 33 31 41 45 52 53 53 54 55 56 59 64 68 69 69 68 67 66 64 62 60 58 59 60 59 59 59 60 60 59 59 59 59 59 60 61 62
43 39 34 33 31 31 30 27 25 28 30 33 33 31 39 43 51 54 54 54 55 57 57 61 63 65 68 68 68 66 65 63 62 61 61 61 60 59 60 60 61 60 60 59 59 59 59 59 61
47 39 36 34 32 32 30 28 29 31 32 33 33 31 39 44 48 53 54 53 54 56 57 57 60 63 65 65 67 67 66 65 63 62 61 61 59 57 59 59 59 60 59 59 59 59 59 61 62
45 40 39 36 33 31 31 30 33 35 34 32 33 34 36 36 40 43 50 53 53 55 57 57 58 60 62 63 66 65 65 65 64 62 60 59 58 56 57 58 57 58 59 60 60 60 60 61 60
45 41 41 36 34 34 33 33 33 35 35 34 34 37 37 36 34 33 34 41 52 54 56 57 58 59 60 60 64 64 63 63 62 61 58 59 54 53 55 56 57 58 59 59 59 59 60 59 58
43 42 41 39 37 36 35 35 34 35 36 38 38 38 37 36 35 32 34 36 39 51 53 56 57 58 59 60 60 60 60 59 58 57 56 56 55 54 54 54 55 56 56 57 57 56 56 56 56
44 43 41 39 38 37 37 36 36 36 37 38 38 38 37 36 36 35 33 34 38 44 51 55 56 57 59 59 60 60 59 59 58 58 57 56 55 55 55 55 55 56 56 56 56 57 56 56 56
43 44 42 40 37 37 36 36 37 37 37 37 37 37 33 30 36 35 36 38 43 45 49 51 54 56 56 58 59 59 59 59 58 59 59 58 58 58 58 58 58 58 57 57 56 56 56 56 57
38 42 41 41 38 36 37 35 36 37 37 36 36 35 31 32 34 35 40 41 44 48 50 51 53 53 55 56 59 59 59 59 59 59 59 59 59 58 58 58 58 58 58 57 57 57 57 56 55
41 41 40 41 38 37 36 34 37 38 36 35 35 32 29 33 35 37 39 40 43 45 46 45 44 45 49 54 57 59 59 59 59 59 58 57 56 56 56 57 51 52 55 52 46 44 43 43 42
40 37 39 40 40 36 36 34 37 37 36 34 33 29 29 34 36 38 39 40 40 42 43 46 48 47 45 54 57 58 57 57 57 56 53 49 47 50 48 45 40 42 42 41 39 39 40 39 39
34 37 38 39 38 37 35 34 36 36 35 33 30 30 31 33 35 38 40 41 44 47 48 49 50 50 54 57 56 56 50 47 46 45 42 41 40 40 41 40 39 40 40 39 37 37 38 38 38
35 36 37 39 39 36 34 33 34 35 35 34 31 31 32 33 37 39 41 44 48 50 51 52 53 53 54 54 55 50 46 43 41 39 37 38 38 39 38 39 37 37 37 35 33 33 32 32 33
36 37 37 36 37 35 33 33 34 32 33 32 31 32 32 36 37 39 41 44 49 53 54 54 54 53 52 51 49 47 45 42 40 39 37 36 34 34 33 32 33 30 31 30 27 27 30 31 30
35 36 39 34 35 33 32 31 31 32 31 31 33 34 32 35 37 39 41 43 48 49 50 50 50 49 47 46 44 43 43 41 40 39 37 34 29 28 29 27 26 25 25 24 24 24 26 28 26
32 35 41 36 32 32 32 27 29 30 31 32 33 31 33 35 37 39 41 43 44 46 46 47 47 47 47 45 44 42 39 38 38 38 38 33 29 23 22 23 22 21 22 21 22 21 23 27 24
34 39 41 36 35 35 32 30 30 29 29 31 28 29 34 35 37 40 42 43 44 45 44 42 40 40 39 39 39 39 39 39 38 36 33 31 28 22 20 20 19 18 20 19 20 19 21 27 25
37 38 40 38 37 32 31 31 28 28 27 27 28 32 34 35 38 41 43 45 45 43 41 40 39 39 40 39 39 38 37 35 33 29 28 26 24 22 18 18 17 16 17 18 18 21 20 25 25
40 37 32 31 31 27 30 28 28 25 26 28 28 33 34 36 39 42 43 44 43 41 40 39 38 38 37 36 35 34 32 28 24 24 21 18 18 17 15 15 13 14 15 15 15 18 19 21 21
36 37 30 26 26 24 25 26 26 27 26 28 31 34 35 37 40 41 42 43 42 41 39 38 37 35 34 32 30 28 27 23 20 17 17 15 14 13 13 13 12 12 12 12 12 15 18 16 15
37 37 35 25 22 23 24 24 22 28 28 27 31 34 35 37 40 40 42 42 42 40 39 38 36 34 31 28 25 22 20 18 16 14 14 13 12 9 10 10 10 10 10 10 11 13 12 13 12
41 40 31 31 21 21 24 23 21 24 27 27 31 34 35 37 39 40 41 42 41 40 39 37 35 32 29 26 22 18 15 13 13 12 9 9 8 8 9 9 8 9 9 9 9 11 12 10 12
39 37 36 32 27 22 20 21 25 25 27 28 29 34 35 37 38 40 41 41 41 40 39 36 32 30 27 25 21 16 13 12 10 9 8 7 8 8 8 8 9 9 9 10 10 10 9 9 10
39 38 35 28 25 25 23 22 26 27 27 28 29 34 36 37 39 40 40 40 40 39 37 35 32 28 25 22 18 16 14 11 9 8 8 8 8 8 9 10 10 10 10 11 10 9 10 10 13
Wind_Speed
18 19 15 5 5 5 12 16 19 5 3 7 10 8 13 13 6 4 7 9 15 20 18 18 17 15 15 14 14 11 8 6 4 4 3 5 6 6 6 6 7 7 7 8 8 11 9 9 8
12 17 11 5 4 5 11 12 7 6 11 11 12 6 5 4 14 11 9 7 13 18 20 16 14 14 16 14 13 11 8 5 4 3 3 4 5 4 4 6 6 5 7 6 8 8 8 11 9
15 15 5 5 11 15 8 6 12 13 14 10 5 2 4 6 14 6 14 8 14 14 21 20 17 14 13 13 12 10 8 6 4 4 2 2 1 3 4 4 5 4 4 4 5 6 6 6 6
6 5 6 9 17 22 7 9 2 5 7 8 9 10 7 14 6 8 13 10 15 11 22 21 19 14 14 14 12 10 8 6 5 3 2 1 3 4 5 3 3 3 2 2 3 4 5 6 5
9 5 8 12 18 19 3 6 8 4 5 8 3 7 5 7 8 10 10 8 14 16 19 17 17 14 13 14 13 10 7 6 4 4 3 2 4 5 4 1 4 2 1 2 2 3 4 4 5
9 7 11 16 19 22 3 4 3 7 14 8 2 7 5 11 11 6 9 6 12 14 19 17 15 14 12 14 12 11 8 6 5 5 4 2 3 4 3 0 5 2 2 3 5 6 8 9 8
15 14 18 19 21 23 3 9 1 11 10 7 5 4 9 12 7 3 7 9 9 13 16 17 13 12 14 13 12 11 9 7 6 5 5 2 2 3 3 5 5 6 5 6 6 8 9 9 10
16 17 22 21 16 22 14 4 3 3 10 14 0 3 5 6 6 5 4 9 9 11 12 18 18 15 14 12 14 13 11 8 6 6 4 5 3 7 8 8 9 9 6 8 9 10 11 11 11
18 18 22 23 22 21 3 3 4 4 7 9 12 10 13 12 9 8 5 5 9 11 10 13 17 19 18 16 16 15 12 10 8 8 10 9 9 14 15 13 7 7 6 8 9 12 13 12 12
14 16 23 21 19 18 17 6 5 6 11 14 9 14 12 13 10 7 11 13 13 12 12 10 12 13 18 15 16 15 14 13 13 14 14 14 15 7 10 9 7 7 9 10 12 14 15 14 13
24 28 19 23 26 22 9 11 7 12 11 12 14 15 11 10 8 8 12 10 18 19 16 14 13 11 12 10 15 13 13 13 15 18 13 15 5 2 5 7 8 8 10 10 12 13 13 14 13
27 27 26 27 24 16 10 9 17 16 14 14 13 13 16 12 9 14 6 7 4 17 18 18 14 14 11 12 11 10 11 10 7 8 6 5 4 4 5 6 5 6 7 9 8 8 10 11 13
32 26 28 24 26 26 10 15 20 18 15 20 18 19 15 14 10 13 5 5 4 6 15 17 15 12 14 10 13 10 9 8 6 5 5 3 1 2 2 2 3 4 5 6 9 7 10 11 12
14 30 26 26 24 23 16 19 19 19 15 20 19 16 16 16 11 1 7 9 6 6 12 14 13 14 10 14 10 8 6 9 7 6 6 3 2 5 5 6 6 5 5 7 6 8 11 11 11
26 28 20 31 27 20 20 28 24 20 19 25 21 16 13 4 4 2 2 5 6 7 6 6 9 9 9 7 14 10 7 6 8 6 6 6 3 1 3 4 7 7 10 12 10 11 11 11 13
16 25 27 28 24 25 23 28 19 19 24 28 24 14 10 9 1 2 2 3 1 3 2 5 4 3 2 7 5 10 9 11 6 9 8 6 8 10 7 8 12 14 11 12 14 16 17 17 17
16 21 34 22 23 22 28 27 21 22 26 20 10 12 9 15 9 6 4 2 3 2 5 7 4 4 7 5 8 16 15 15 15 15 16 17 17 14 13 14 15 14 14 15 15 15 14 16 18
24 28 28 33 28 24 29 29 20 21 16 14 11 17 12 16 13 10 6 6 5 5 7 9 7 5 11 14 17 17 18 17 16 17 17 17 16 18 17 15 15 15 13 14 14 14 14 14 16
29 28 27 23 25 24 31 31 20 21 24 22 20 19 13 18 17 11 7 8 9 8 11 12 13 13 13 15 16 16 17 17 16 16 16 16 16 16 17 14 14 15 13 14 14 10 15 15 16
32 35 35 26 28 33 29 28 24 19 23 24 23 18 16 22 17 12 9 11 11 12 13 13 15 17 16 15 16 16 15 16 15 14 16 16 17 17 14 15 13 13 12 13 14 13 10 8 14
38 32 29 34 27 5 12 18 20 24 25 23 19 19 13 27 23 16 13 13 13 15 16 18 19 20 19 19 19 17 17 13 13 12 13 15 16 15 14 14 13 13 12 13 13 13 14 12 14
39 29 38 32 21 15 14 8 20 35 30 28 19 14 18 25 23 19 17 14 14 14 15 16 17 17 16 16 16 15 16 16 12 11 11 12 14 14 13 11 11 10 11 12 11 11 12 11 13
31 31 44 15 20 13 14 9 11 12 15 24 16 15 22 24 24 22 19 17 14 14 15 17 18 19 19 20 19 18 16 13 11 11 11 11 12 14 12 11 10 10 10 10 11 11 13 11 9
18 32 21 20 11 10 14 15 9 15 20 22 19 19 24 24 24 22 19 17 15 15 16 17 19 19 19 20 18 17 16 14 12 13 11 10 10 10 12 11 10 9 9 9 9 8 11 12 11
19 26 10 9 9 7 24 14 13 13 12 23 25 23 23 23 23 22 20 18 16 16 16 16 18 19 18 19 19 17 17 15 14 12 11 11 10 8 10 10 10 9 9 10 11 11 12 12 15
21 19 9 10 10 9 8 11 5 15 14 17 21 23 23 23 22 21 20 19 18 16 15 17 18 19 17 18 18 16 15 14 12 12 10 9 8 7 9 10 10 11 11 11 12 12 13 14 15
10 22 5 8 13 13 7 4 7 14 12 13 23 24 24 23 24 22 21 20 18 17 17 17 18 17 16 16 16 15 14 13 11 11 10 8 8 8 10 10 11 12 13 13 14 13 16 14 16
4 7 2 4 12 11 12 17 9 17 15 14 24 25 23 22 23 21 20 21 17 17 18 18 16 16 16 15 14 13 12 11 10 10 8 8 8 9 9 10 12 13 13 13 14 14 13 17 15
8 6 5 5 4 7 10 4 18 17 21 22 20 26 25 23 24 22 20 20 19 18 17 18 17 15 14 14 14 13 11 11 10 8 7 8 8 9 9 10 12 13 14 14 15 16 16 18 15
6 4 5 2 3 2 4 5 11 12 9 13 21 24 24 22 22 22 21 21 20 18 18 17 16 14 13 14 14 12 11 9 7 7 7 7 8 9 10 11 12 13 14 15 17 17 17 15 18
Wind_Direction
315 315 309 297 323 225 266 249 263 45 325 26 343 302 299 290 344 95 110 94 120 130 135 149 157 155 149 156 146 135 130 117 119 112 83 92 103 78 70 54 44 27 19 19 16 13 24 23 38
300 305 304 262 248 278 269 279 223 206 33 358 307 255 267 80 66 120 116 97 119 126 137 152 156 154 164 155 137 135 133 121 110 133 125 113 86 77 70 72 53 38 29 18 12 3 10 26 32
277 274 289 237 241 256 252 314 25 10 352 313 300 220 300 10 48 85 111 124 113 128 151 154 155 162 162 144 134 137 135 129 118 147 154 173 135 94 102 87 70 65 44 14 4 360 5 8 9
310 290 248 246 264 281 270 307 55 11 334 344 334 301 81 35 64 80 124 139 123 140 111 140 149 165 160 149 141 145 149 136 144 160 253 20 169 121 115 116 91 70 52 15 356 353 353 337 336
241 259 263 272 269 271 258 315 335 327 269 256 339 297 50 64 91 114 128 146 127 124 124 139 147 154 156 153 149 148 146 151 153 171 216 248 145 151 143 137 159 124 5 319 304 286 278 278 273
262 230 256 258 257 256 178 250 337 287 277 276 198 326 80 59 86 90 135 147 125 123 132 140 147 154 164 157 157 157 156 153 163 176 201 187 289 163 87 53 173 194 256 295 289 279 279 273 271
245 252 245 253 272 289 274 79 242 275 335 329 0 289 98 75 86 129 155 125 129 130 132 144 160 160 168 169 167 165 166 162 169 185 240 311 66 151 164 138 194 236 253 269 280 287 291 296 284
253 248 257 259 257 274 293 101 269 319 281 357 360 260 103 82 103 109 117 140 147 145 155 154 166 169 173 186 181 176 177 174 180 194 210 254 229 232 228 218 233 238 249 269 275 279 283 287 291
269 250 249 242 246 259 187 170 259 155 276 282 288 287 123 140 145 142 166 191 174 170 177 174 168 174 178 188 185 182 181 185 193 211 217 223 234 243 224 221 190 199 246 270 276 276 278 283 282
226 225 239 255 257 253 261 170 263 312 289 287 269 268 136 158 170 185 183 193 195 187 184 194 178 182 182 186 164 177 188 194 204 214 214 209 225 220 154 155 212 246 257 258 269 269 266 265 261
233 231 247 247 262 278 264 304 290 263 269 276 279 329 335 336 340 282 248 220 193 191 184 190 191 187 177 166 164 188 183 199 205 204 194 200 189 163 198 220 231 232 253 242 248 250 252 248 248
236 233 228 254 266 259 261 286 273 271 283 293 309 306 291 287 278 272 255 223 231 176 180 179 192 184 197 177 179 202 177 183 185 178 192 174 187 182 238 238 218 217 231 240 257 267 276 267 270
243 243 243 239 251 266 227 248 266 272 275 285 290 276 267 262 242 267 319 297 274 219 168 172 182 191 187 190 175 208 180 160 181 131 156 159 145 274 288 344 325 312 287 288 282 289 292 298 303
266 243 252 254 246 241 243 240 256 255 254 266 271 277 272 264 232 81 305 265 249 229 171 177 179 190 195 178 188 184 184 163 151 136 139 118 4 7 20 343 309 302 295 282 305 311 304 303 313
257 263 240 250 251 251 242 254 245 260 257 257 260 261 266 63 37 261 20 343 349 1 62 137 168 187 196 197 175 179 142 111 129 130 114 97 66 354 1 331 313 331 7 350 357 355 335 327 330
285 259 246 244 236 240 233 249 246 255 246 246 243 243 238 146 186 124 133 256 141 325 52 81 54 331 292 199 171 154 148 131 120 83 76 79 54 49 25 36 32 13 15 23 20 13 358 353 346
250 237 228 239 241 231 236 250 253 251 262 265 233 240 221 145 147 108 107 80 67 133 159 134 150 193 204 182 110 80 75 73 63 58 61 57 49 42 63 53 33 20 28 29 18 3 4 351 338
223 225 228 226 223 229 231 240 232 251 263 242 250 246 245 158 146 113 109 101 98 94 93 108 120 134 109 98 92 81 74 68 66 65 62 61 53 43 46 44 39 24 26 29 17 8 360 349 341
241 239 227 225 216 222 234 243 241 246 238 248 229 249 244 140 115 123 138 124 109 103 115 124 119 113 114 114 108 95 91 84 76 72 71 64 57 60 46 40 40 28 22 31 16 360 359 347 351
239 255 236 225 208 215 233 226 232 240 240 239 227 232 229 125 126 132 138 118 116 108 98 90 85 83 82 88 93 99 101 97 91 81 75 66 58 52 53 40 35 31 22 25 16 8 353 338 355
247 247 250 208 223 160 236 255 257 245 247 237 221 232 187 141 136 138 121 107 101 95 93 91 87 87 91 94 97 104 112 108 102 89 75 72 62 52 51 45 34 27 23 21 7 10 1 342 347
245 241 246 203 192 190 187 266 235 235 226 225 224 216 138 137 134 139 128 113 98 95 92 96 107 115 118 122 129 122 111 108 101 97 106 91 81 57 40 43 34 31 27 17 6 0 354 354 344
220 239 221 180 168 170 184 225 258 251 195 195 187 192 142 137 136 136 132 123 112 100 97 92 88 85 88 92 97 104 105 99 98 93 82 83 79 69 39 33 30 32 24 7 356 353 356 343 337
210 255 228 166 198 205 192 197 259 257 180 180 183 147 136 136 132 127 122 117 112 103 100 97 93 86 84 85 86 92 97 92 80 66 61 57 69 60 36 19 16 23 12 356 350 354 340 325 326
218 235 137 155 193 196 191 214 258 91 100 154 152 144 141 139 134 133 137 136 130 123 119 111 104 97 91 88 84 83 83 80 70 64 59 50 41 35 22 16 5 5 358 352 346 342 326 328 318
226 206 166 146 151 157 117 208 172 146 119 135 145 144 144 143 140 147 149 142 134 135 125 115 108 103 98 95 88 81 80 80 74 67 58 49 41 20 21 9 2 355 348 345 343 338 334 322 323
205 216 27 122 167 135 179 191 86 119 121 137 145 148 154 151 149 158 148 139 142 135 127 120 114 109 105 99 95 89 84 80 73 63 54 35 27 19 7 3 354 347 344 345 341 334 324 324 317
232 234 145 257 166 160 182 178 167 166 152 159 156 160 158 153 154 154 147 143 142 135 128 124 120 116 107 102 98 91 85 77 71 62 48 28 14 17 1 355 348 340 339 338 336 329 323 318 311
171 207 231 303 64 165 144 82 152 164 164 168 172 163 163 159 160 151 146 143 136 131 132 122 122 121 116 108 98 91 79 70 66 54 36 21 10 2 354 345 339 335 333 334 333 327 319 317 318
218 214 243 322 104 42 99 121 91 112 130 159 172 160 159 157 153 149 144 137 139 143 136 135 132 124 117 111 103 92 78 67 60 42 26 12 5 352 341 341 333 330 329 328 324 319 314 320 330